Tracking 22993 objects as of 11-May-2021
HD Live streaming from Space Station
objects crossing your sky now

FLOCK 3P 67

Track FLOCK 3P 67 now!
10-day predictions
FLOCK 3P 67 is classified as:


NORAD ID: 42002
Int'l Code: 2017-008BG
Perigee: 476.8 km
Apogee: 485.1 km
Inclination: 97.3 °
Period: 94.1 minutes
Semi major axis: 6851 km
RCS: Unknown
Launch date: February 15, 2017
Source: United States (US)
Launch site: SRIHARIKOTA (SRI)
aabbcc
Your satellite tracking list
Your tracking list is empty




NASA's NSSDC Master Catalog

Two Line Element Set (TLE):
1 42002U 17008BG  21130.87844941  .00003249  00000-0  11210-3 0  9992
2 42002  97.3256 201.7305 0006090 210.1066 149.9826 15.30674685235702
Source of the keplerian elements: AFSPC